KINEIS-1D

Last updated on Mon Sep 21 2026 00:02:54 GMT+0000 (Coordinated Universal Time)

1 60082U 24114D 26263.60566978 .00000330 00000+0 54807-4 0 9997 2 60082 97.9871 282.7055 0000605 164.0485 196.0744 14.76426272121205
UTC large
Height (km)
Speed (km/s)
/
Latitude / Longitude
Inclination (degrees)
Orbital Period (minutes)
Azimuth
Elevation
Range (km)
Doppler Factor

Next 0 passes for location: London (51.5072 / 0.1276)

No passes found over London.
KINEIS-1D